Simultaneous Nadir Overpasses (SNOs) Predictions

Prediction of SNOs between NOAA-20 and METOP-C Satellite Orbit:

Table of predicted SNOs for the next 14.0 days since TLE Epoch: 11/26/2022
Index Date (NOAA-20) Time (NOAA-20) Lat,Lon (NOAA-20) SZA (NOAA-20 ) Date (METOP-C) Time (METOP-C) Lat,Lon (METOP-C) SZA (METOP-C ) Distance(km) Time Diff (sec)
1 11/26/2022 19:27:06 -73.51, 58.35 85.44 11/26/2022 19:28:12 -73.46, 61.43 85.57 97.30 66
2 11/26/2022 20:17:48 73.32,-133.91 94.38 11/26/2022 20:18:56 73.24,-131.72 94.24 70.50 68
3 11/26/2022 21:08:30 -73.22, 33.64 85.73 11/26/2022 21:09:39 -73.19, 35.48 85.81 59.49 69
4 11/26/2022 21:59:12 73.03,-158.64 94.08 11/26/2022 22:00:23 72.97,-157.65 93.99 32.69 71
5 11/26/2022 22:49:54 -72.93, 8.90 86.03 11/26/2022 22:51:07 -72.87, 9.45 86.11 19.32 73
6 11/26/2022 23:40:36 72.73, 176.61 93.78 11/26/2022 23:41:49 72.75, 176.54 93.79 2.92 73
7 11/27/2022 00:31:20 -72.73, -16.07 86.22 11/27/2022 00:32:31 -72.75, -16.14 86.21 2.79 71
8 11/27/2022 01:22:06 72.74, 151.22 93.80 11/27/2022 01:23:11 72.73, 151.16 93.78 2.44 65
9 11/27/2022 02:12:50 -72.74, -41.46 86.20 11/27/2022 02:13:53 -72.73, -41.52 86.22 2.42 63
10 11/27/2022 03:03:36 72.75, 125.83 93.82 11/27/2022 03:04:32 72.76, 125.89 93.83 2.18 56
11 11/27/2022 03:54:20 -72.75, -66.85 86.18 11/27/2022 03:55:14 -72.76, -66.79 86.17 2.18 54
12 11/27/2022 04:45:06 72.76, 100.44 93.84 11/27/2022 04:45:54 72.74, 100.51 93.82 2.75 48
13 11/27/2022 05:35:50 -72.76, -92.24 86.16 11/27/2022 05:36:36 -72.74, -92.17 86.18 2.86 46
14 11/27/2022 06:26:35 72.71, 75.16 93.81 11/27/2022 06:27:16 72.72, 75.13 93.82 1.33 41
15 11/27/2022 07:17:19 -72.71,-117.52 86.19 11/27/2022 07:17:58 -72.72,-117.55 86.19 1.20 39
16 11/27/2022 08:08:05 72.72, 49.77 93.83 11/27/2022 08:08:38 72.70, 49.75 93.81 2.29 33
17 11/27/2022 08:58:49 -72.72,-142.92 86.17 11/27/2022 08:59:20 -72.70,-142.93 86.19 2.40 31
18 11/27/2022 09:49:35 72.73, 24.38 93.85 11/27/2022 09:49:59 72.73, 24.47 93.85 3.16 24
19 11/27/2022 10:40:19 -72.73,-168.31 86.15 11/27/2022 10:40:41 -72.73,-168.21 86.15 3.17 22
20 11/27/2022 11:31:04 72.69, -0.91 93.82 11/27/2022 11:31:21 72.71, -0.91 93.85 3.04 17
21 11/27/2022 12:21:48 -72.69, 166.41 86.18 11/27/2022 12:22:03 -72.71, 166.41 86.15 2.87 15
22 11/27/2022 13:12:34 72.69, -26.30 93.84 11/27/2022 13:12:43 72.69, -26.29 93.84 0.36 9
23 11/27/2022 14:03:18 -72.69, 141.02 86.16 11/27/2022 14:03:25 -72.69, 141.03 86.16 0.41 7
24 11/27/2022 14:54:04 72.70, -51.69 93.86 11/27/2022 14:54:05 72.68, -51.67 93.84 3.12 1
25 11/27/2022 15:44:48 -72.70, 115.63 86.14 11/27/2022 15:44:47 -72.67, 115.65 86.17 3.29 1
26 11/27/2022 16:35:33 72.66, -76.98 93.83 11/27/2022 16:35:27 72.66, -77.05 93.83 2.45 6
27 11/27/2022 17:26:17 -72.66, 90.34 86.17 11/27/2022 17:26:09 -72.65, 90.27 86.17 2.48 8
28 11/27/2022 18:17:03 72.67,-102.37 93.85 11/27/2022 18:16:48 72.69,-102.32 93.87 2.59 15
29 11/27/2022 19:07:46 -72.67, 64.95 86.15 11/27/2022 19:07:29 -72.68, 64.99 86.13 2.40 17
30 11/27/2022 19:58:32 72.68,-127.76 93.87 11/27/2022 19:58:09 72.67,-127.70 93.87 1.94 23
31 11/27/2022 20:49:16 -72.67, 39.56 86.13 11/27/2022 20:48:51 -72.66, 39.61 86.14 2.03 25
32 11/27/2022 21:40:01 72.63,-153.04 93.84 11/27/2022 21:39:31 72.65,-153.08 93.86 2.21 30
33 11/27/2022 22:30:45 -72.63, 14.28 86.16 11/27/2022 22:30:13 -72.64, 14.23 86.14 2.04 32
34 11/27/2022 23:21:31 72.64,-178.43 93.86 11/27/2022 23:20:53 72.63,-178.46 93.85 1.65 38
35 11/28/2022 00:12:15 -72.64, -11.11 86.14 11/28/2022 00:11:35 -72.62, -11.15 86.15 1.87 40
36 11/28/2022 01:03:01 72.65, 156.18 93.88 11/28/2022 01:02:14 72.66, 156.26 93.90 3.08 47
37 11/28/2022 01:53:45 -72.65, -36.50 86.12 11/28/2022 01:52:56 -72.66, -36.42 86.11 2.93 49
38 11/28/2022 02:44:31 72.66, 130.79 93.90 11/28/2022 02:43:36 72.64, 130.88 93.89 3.59 55
39 11/28/2022 03:35:14 -72.60, -61.79 86.15 11/28/2022 03:34:18 -72.64, -61.80 86.11 3.65 56
40 11/28/2022 04:26:00 72.61, 105.50 93.87 11/28/2022 04:24:58 72.62, 105.50 93.89 0.86 62
41 11/28/2022 05:16:44 -72.61, -87.18 86.13 11/28/2022 05:15:40 -72.62, -87.18 86.12 0.58 64
42 11/28/2022 06:07:30 72.62, 80.11 93.89 11/28/2022 06:06:20 72.60, 80.12 93.88 2.22 70
43 11/28/2022 06:58:14 -72.62,-112.57 86.11 11/28/2022 06:57:02 -72.60,-112.56 86.12 2.50 72
44 11/28/2022 07:48:57 72.48, 55.03 93.75 11/28/2022 07:47:44 72.48, 54.54 93.78 16.50 73
45 11/28/2022 08:39:40 -72.42,-137.55 86.30 11/28/2022 08:38:27 -72.42,-138.25 86.28 23.39 73
46 11/28/2022 09:30:21 72.18, 30.24 93.45 11/28/2022 09:29:11 72.20, 28.65 93.53 54.17 70
47 11/28/2022 10:21:04 -72.13,-162.34 86.60 11/28/2022 10:19:54 -72.15,-164.13 86.52 60.91 70
48 11/28/2022 11:11:45 71.88, 5.44 93.15 11/28/2022 11:10:39 71.88, 2.69 93.23 95.14 66



Historial Predications of SNOs between NOAA-20 and METOP-C
